Time,TemperatureF,DewpointF,PressureIn,WindDirection,WindDirectionDegrees,WindSpeedMPH,WindSpeedGustMPH,Humidity,HourlyPrecipIn,Conditions,Clouds,dailyrainin,SoftwareType,DateUTC
2013-07-07 00:01:00,81.0,69.0,29.81,SSE,164,6.0,11.0,68,0.00,,,0.00,,2013-07-07 05:01:00,
2013-07-07 01:01:00,75.0,65.0,29.83,SSE,157,3.0,6.0,71,0.00,,,0.00,,2013-07-07 06:01:00,
2013-07-07 01:11:00,75.0,65.0,29.83,SSE,148,0.0,5.0,71,0.00,,,0.00,,2013-07-07 06:11:00,
2013-07-07 01:21:00,75.0,65.0,29.83,SSE,153,0.0,6.0,71,0.00,,,0.00,,2013-07-07 06:21:00,
2013-07-07 01:32:00,75.0,65.0,29.83,SSE,159,1.0,7.0,70,0.00,,,0.00,,2013-07-07 06:32:00,
2013-07-07 01:43:00,75.0,64.0,29.83,SSE,152,5.0,9.0,69,0.00,,,0.00,,2013-07-07 06:43:00,
2013-07-07 01:52:00,75.0,64.0,29.82,SSE,155,2.0,10.0,69,0.00,,,0.00,,2013-07-07 06:52:00,
2013-07-07 02:02:00,75.0,64.0,29.82,SSE,160,5.0,10.0,69,0.00,,,0.00,,2013-07-07 07:02:00,
2013-07-07 02:11:00,75.0,64.0,29.82,SSE,149,2.0,9.0,69,0.00,,,0.00,,2013-07-07 07:11:00,
2013-07-07 02:22:00,75.0,64.0,29.82,SSE,162,4.0,9.0,69,0.00,,,0.00,,2013-07-07 07:22:00,
2013-07-07 02:33:00,75.0,64.0,29.82,SSE,161,2.0,8.0,69,0.00,,,0.00,,2013-07-07 07:33:00,
2013-07-07 02:44:00,75.0,65.0,29.82,SSE,155,2.0,7.0,70,0.00,,,0.00,,2013-07-07 07:44:00,
2013-07-07 02:53:00,75.0,65.0,29.82,SSE,157,2.0,8.0,70,0.00,,,0.00,,2013-07-07 07:53:00,
2013-07-07 03:02:00,75.0,65.0,29.82,SSE,150,2.0,7.0,71,0.00,,,0.00,,2013-07-07 08:02:00,
2013-07-07 03:12:00,75.0,65.0,29.81,South,171,2.0,9.0,71,0.00,,,0.00,,2013-07-07 08:12:00,
2013-07-07 03:22:00,74.0,64.0,29.82,SSE,149,2.0,7.0,71,0.00,,,0.00,,2013-07-07 08:22:00,
2013-07-07 03:33:00,74.0,64.0,29.82,SSE,155,0.0,6.0,72,0.00,,,0.00,,2013-07-07 08:33:00,
2013-07-07 03:44:00,74.0,64.0,29.82,SE,144,1.0,7.0,72,0.00,,,0.00,,2013-07-07 08:44:00,
2013-07-07 03:53:00,74.0,64.0,29.82,SSE,158,0.0,6.0,72,0.00,,,0.00,,2013-07-07 08:53:00,
2013-07-07 04:02:00,74.0,65.0,29.82,SSE,158,0.0,6.0,73,0.00,,,0.00,,2013-07-07 09:02:00,
2013-07-07 04:12:00,73.0,64.0,29.81,SSE,150,3.0,8.0,73,0.00,,,0.00,,2013-07-07 09:12:00,
2013-07-07 04:22:00,73.0,64.0,29.81,SSE,153,5.0,9.0,73,0.00,,,0.00,,2013-07-07 09:22:00,
2013-07-07 04:34:00,74.0,65.0,29.81,SSE,155,4.0,7.0,73,0.00,,,0.00,,2013-07-07 09:34:00,
2013-07-07 04:43:00,74.0,64.0,29.81,SSE,158,4.0,11.0,72,0.00,,,0.00,,2013-07-07 09:43:00,
2013-07-07 04:53:00,74.0,64.0,29.80,SSE,159,6.0,11.0,72,0.00,,,0.00,,2013-07-07 09:53:00,
2013-07-07 05:03:00,74.0,64.0,29.80,SSE,161,3.0,10.0,72,0.00,,,0.00,,2013-07-07 10:03:00,
2013-07-07 05:12:00,74.0,65.0,29.80,SSE,152,4.0,9.0,73,0.00,,,0.00,,2013-07-07 10:12:00,
2013-07-07 05:22:00,74.0,65.0,29.80,SE,142,4.0,7.0,73,0.00,,,0.00,,2013-07-07 10:22:00,
2013-07-07 05:32:00,74.0,65.0,29.80,South,173,4.0,7.0,73,0.00,,,0.00,,2013-07-07 10:32:00,
2013-07-07 05:43:00,74.0,65.0,29.80,SSE,159,6.0,8.0,73,0.00,,,0.00,,2013-07-07 10:43:00,
2013-07-07 05:52:00,74.0,65.0,29.81,SSE,161,4.0,8.0,73,0.00,,,0.00,,2013-07-07 10:52:00,
2013-07-07 06:02:00,74.0,65.0,29.81,SSE,161,4.0,11.0,74,0.00,,,0.00,,2013-07-07 11:02:00,
2013-07-07 06:11:00,74.0,65.0,29.81,South,176,3.0,10.0,74,0.00,,,0.00,,2013-07-07 11:11:00,
2013-07-07 06:23:00,74.0,65.0,29.81,SSE,148,0.0,8.0,74,0.00,,,0.00,,2013-07-07 11:23:00,
2013-07-07 06:34:00,74.0,65.0,29.81,SSE,167,6.0,9.0,74,0.00,,,0.00,,2013-07-07 11:34:00,
2013-07-07 06:43:00,74.0,65.0,29.81,SSE,165,1.0,7.0,74,0.00,,,0.00,,2013-07-07 11:43:00,
2013-07-07 06:53:00,74.0,65.0,29.81,SSE,168,1.0,10.0,74,0.00,,,0.00,,2013-07-07 11:53:00,
2013-07-07 07:02:00,74.0,65.0,29.82,SE,146,4.0,8.0,74,0.00,,,0.00,,2013-07-07 12:02:00,
2013-07-07 07:12:00,74.0,65.0,29.82,SSE,161,2.0,10.0,74,0.00,,,0.00,,2013-07-07 12:12:00,
2013-07-07 07:22:00,74.0,66.0,29.82,SSE,166,2.0,7.0,75,0.00,,,0.00,,2013-07-07 12:22:00,
2013-07-07 07:34:00,75.0,67.0,29.82,South,188,1.0,8.0,75,0.00,,,0.00,,2013-07-07 12:34:00,
2013-07-07 07:43:00,75.0,67.0,29.82,SW,215,2.0,7.0,75,0.00,,,0.00,,2013-07-07 12:43:00,
2013-07-07 07:52:00,75.0,67.0,29.82,SSE,160,3.0,7.0,75,0.00,,,0.00,,2013-07-07 12:52:00,
2013-07-07 08:02:00,76.0,67.0,29.82,SSE,160,2.0,7.0,74,0.00,,,0.00,,2013-07-07 13:02:00,
2013-07-07 08:11:00,77.0,68.0,29.82,SSE,167,1.0,7.0,74,0.00,,,0.00,,2013-07-07 13:11:00,
2013-07-07 08:22:00,77.0,67.0,29.82,SSW,211,1.0,7.0,72,0.00,,,0.00,,2013-07-07 13:22:00,
2013-07-07 08:34:00,78.0,68.0,29.82,South,181,1.0,10.0,71,0.00,,,0.00,,2013-07-07 13:34:00,
2013-07-07 08:43:00,79.0,69.0,29.83,SSW,193,4.0,12.0,71,0.00,,,0.00,,2013-07-07 13:43:00,
2013-07-07 08:52:00,79.0,68.0,29.83,SSW,194,7.0,11.0,70,0.00,,,0.00,,2013-07-07 13:52:00,
2013-07-07 09:02:00,80.0,69.0,29.83,SSW,200,9.0,14.0,69,0.00,,,0.00,,2013-07-07 14:02:00,
2013-07-07 09:12:00,80.0,69.0,29.82,South,173,7.0,15.0,70,0.00,,,0.00,,2013-07-07 14:12:00,
2013-07-07 09:22:00,81.0,70.0,29.85,SSW,212,7.0,11.0,69,0.00,,,0.00,,2013-07-07 14:22:00,
2013-07-07 09:34:00,81.0,69.0,29.85,SSW,194,6.0,15.0,68,0.00,,,0.00,,2013-07-07 14:34:00,
2013-07-07 09:43:00,81.0,69.0,29.85,SSW,203,8.0,15.0,68,0.00,,,0.00,,2013-07-07 14:43:00,
2013-07-07 09:53:00,82.0,70.0,29.85,SSW,211,1.0,16.0,68,0.00,,,0.00,,2013-07-07 14:53:00,
2013-07-07 10:02:00,82.0,69.0,29.85,SW,221,10.0,17.0,65,0.00,,,0.00,,2013-07-07 15:02:00,
2013-07-07 10:11:00,83.0,70.0,29.85,WSW,238,6.0,17.0,65,0.00,,,0.00,,2013-07-07 15:11:00,
2013-07-07 10:22:00,83.0,70.0,29.85,SSW,196,10.0,17.0,65,0.00,,,0.00,,2013-07-07 15:22:00,
2013-07-07 10:34:00,83.0,70.0,29.84,SSW,210,6.0,14.0,65,0.00,,,0.00,,2013-07-07 15:34:00,
2013-07-07 10:43:00,84.0,70.0,29.84,South,182,7.0,16.0,64,0.00,,,0.00,,2013-07-07 15:43:00,
2013-07-07 10:52:00,84.0,70.0,29.84,SSW,202,9.0,15.0,64,0.00,,,0.00,,2013-07-07 15:52:00,
2013-07-07 11:01:00,84.0,71.0,29.85,SSW,212,8.0,13.0,65,0.00,,,0.00,,2013-07-07 16:01:00,
2013-07-07 11:11:00,85.0,71.0,29.85,WSW,246,8.0,14.0,63,0.00,,,0.00,,2013-07-07 16:11:00,
2013-07-07 11:22:00,85.0,71.0,29.85,SSW,203,2.0,12.0,63,0.00,,,0.00,,2013-07-07 16:22:00,
2013-07-07 11:43:00,86.0,71.0,29.85,SSW,210,6.0,17.0,61,0.00,,,0.00,,2013-07-07 16:43:00,
2013-07-07 11:53:00,86.0,71.0,29.85,SSW,200,6.0,16.0,61,0.00,,,0.00,,2013-07-07 16:53:00,
2013-07-07 12:02:00,86.0,71.0,29.85,SSW,197,7.0,14.0,61,0.00,,,0.00,,2013-07-07 17:02:00,
2013-07-07 12:12:00,86.0,71.0,29.85,WSW,244,4.0,15.0,61,0.00,,,0.00,,2013-07-07 17:12:00,
2013-07-07 12:22:00,87.0,73.0,29.85,SSW,199,3.0,13.0,63,0.00,,,0.00,,2013-07-07 17:22:00,
2013-07-07 12:34:00,88.0,71.0,29.85,SSW,207,4.0,12.0,58,0.00,,,0.00,,2013-07-07 17:34:00,
2013-07-07 12:43:00,88.0,72.0,29.85,SSW,203,7.0,14.0,60,0.00,,,0.00,,2013-07-07 17:43:00,
2013-07-07 12:53:00,88.0,71.0,29.84,WSW,245,8.0,12.0,57,0.00,,,0.00,,2013-07-07 17:53:00,
2013-07-07 13:02:00,88.0,72.0,29.84,SSW,213,7.0,14.0,59,0.00,,,0.00,,2013-07-07 18:02:00,
2013-07-07 13:11:00,89.0,73.0,29.84,SW,225,1.0,10.0,59,0.00,,,0.00,,2013-07-07 18:11:00,
2013-07-07 13:22:00,90.0,72.0,29.84,SW,225,5.0,10.0,56,0.00,,,0.00,,2013-07-07 18:22:00,
2013-07-07 13:33:00,90.0,73.0,29.84,SW,234,1.0,10.0,58,0.00,,,0.00,,2013-07-07 18:33:00,
2013-07-07 13:43:00,90.0,72.0,29.85,SSW,195,2.0,10.0,56,0.00,,,0.00,,2013-07-07 18:43:00,
2013-07-07 13:53:00,91.0,73.0,29.85,SW,221,5.0,10.0,55,0.00,,,0.00,,2013-07-07 18:53:00,
2013-07-07 14:01:00,92.0,72.0,29.85,SSW,194,5.0,8.0,53,0.00,,,0.00,,2013-07-07 19:01:00,
2013-07-07 14:11:00,92.0,73.0,29.84,SSE,163,1.0,11.0,55,0.00,,,0.00,,2013-07-07 19:11:00,
2013-07-07 14:22:00,93.0,73.0,29.84,SSW,205,7.0,9.0,52,0.00,,,0.00,,2013-07-07 19:22:00,
2013-07-07 14:33:00,93.0,72.0,29.84,SW,219,4.0,10.0,50,0.00,,,0.00,,2013-07-07 19:33:00,
2013-07-07 14:43:00,93.0,72.0,29.85,SSW,213,3.0,8.0,51,0.00,,,0.00,,2013-07-07 19:43:00,
2013-07-07 14:54:00,94.0,72.0,29.85,SW,221,4.0,8.0,50,0.00,,,0.00,,2013-07-07 19:54:00,
2013-07-07 15:02:00,94.0,71.0,29.85,South,182,0.0,9.0,48,0.00,,,0.00,,2013-07-07 20:02:00,
2013-07-07 15:11:00,94.0,71.0,29.85,SSW,196,3.0,8.0,48,0.00,,,0.00,,2013-07-07 20:11:00,
2013-07-07 15:22:00,94.0,71.0,29.85,SSW,194,4.0,9.0,47,0.00,,,0.00,,2013-07-07 20:22:00,
2013-07-07 15:34:00,94.0,71.0,29.84,SSW,202,5.0,8.0,48,0.00,,,0.00,,2013-07-07 20:34:00,
2013-07-07 15:42:00,94.0,71.0,29.85,West,263,4.0,11.0,48,0.00,,,0.00,,2013-07-07 20:42:00,
2013-07-07 15:53:00,95.0,73.0,29.84,SSW,198,1.0,8.0,49,0.00,,,0.00,,2013-07-07 20:53:00,
2013-07-07 16:02:00,95.0,73.0,29.84,South,181,2.0,7.0,49,0.00,,,0.00,,2013-07-07 21:02:00,
2013-07-07 16:11:00,95.0,73.0,29.84,SSW,201,1.0,7.0,50,0.00,,,0.00,,2013-07-07 21:11:00,
2013-07-07 16:22:00,95.0,73.0,29.83,SSW,195,4.0,8.0,49,0.00,,,0.00,,2013-07-07 21:22:00,
2013-07-07 16:33:00,95.0,72.0,29.83,WSW,240,6.0,10.0,47,0.00,,,0.00,,2013-07-07 21:33:00,
2013-07-07 16:43:00,95.0,72.0,29.83,South,180,6.0,10.0,47,0.00,,,0.00,,2013-07-07 21:43:00,
2013-07-07 16:53:00,95.0,72.0,29.83,SW,221,1.0,8.0,48,0.00,,,0.00,,2013-07-07 21:53:00,
2013-07-07 17:01:00,95.0,72.0,29.83,SW,222,2.0,7.0,48,0.00,,,0.00,,2013-07-07 22:01:00,
2013-07-07 17:11:00,95.0,72.0,29.84,WSW,246,3.0,8.0,47,0.00,,,0.00,,2013-07-07 22:11:00,
2013-07-07 17:22:00,95.0,72.0,29.83,WSW,249,5.0,7.0,48,0.00,,,0.00,,2013-07-07 22:22:00,
2013-07-07 17:33:00,95.0,72.0,29.83,SSW,200,3.0,6.0,47,0.00,,,0.00,,2013-07-07 22:33:00,
2013-07-07 17:43:00,96.0,73.0,29.83,SSW,211,4.0,9.0,48,0.00,,,0.00,,2013-07-07 22:43:00,
2013-07-07 17:53:00,95.0,73.0,29.83,WSW,237,0.0,7.0,49,0.00,,,0.00,,2013-07-07 22:53:00,
2013-07-07 18:02:00,95.0,73.0,29.83,WSW,239,0.0,7.0,50,0.00,,,0.00,,2013-07-07 23:02:00,
2013-07-07 18:12:00,96.0,72.0,29.83,SSW,207,3.0,7.0,47,0.00,,,0.00,,2013-07-07 23:12:00,
2013-07-07 18:22:00,96.0,74.0,29.82,SSW,199,1.0,7.0,49,0.00,,,0.00,,2013-07-07 23:22:00,
2013-07-07 18:33:00,96.0,72.0,29.82,SSW,207,3.0,6.0,47,0.00,,,0.00,,2013-07-07 23:33:00,
2013-07-07 18:43:00,95.0,72.0,29.81,SW,230,1.0,6.0,48,0.00,,,0.00,,2013-07-07 23:43:00,
2013-07-07 18:52:00,93.0,72.0,29.81,SW,228,0.0,4.0,51,0.00,,,0.00,,2013-07-07 23:52:00,
2013-07-07 19:01:00,92.0,72.0,29.81,SW,228,0.0,3.0,53,0.00,,,0.00,,2013-07-08 00:01:00,
2013-07-07 19:11:00,92.0,72.0,29.81,SW,228,0.0,4.0,53,0.00,,,0.00,,2013-07-08 00:11:00,
2013-07-07 19:22:00,92.0,72.0,29.81,SW,227,2.0,4.0,53,0.00,,,0.00,,2013-07-08 00:22:00,
2013-07-07 19:33:00,93.0,73.0,29.81,SSW,202,1.0,6.0,52,0.00,,,0.00,,2013-07-08 00:33:00,
2013-07-07 19:43:00,93.0,73.0,29.80,SSW,202,0.0,3.0,53,0.00,,,0.00,,2013-07-08 00:43:00,
2013-07-07 19:53:00,92.0,75.0,29.80,SSW,202,0.0,0.0,57,0.00,,,0.00,,2013-07-08 00:53:00,
2013-07-07 20:01:00,92.0,75.0,29.81,SSW,202,0.0,1.0,57,0.00,,,0.00,,2013-07-08 01:01:00,
2013-07-07 20:11:00,90.0,76.0,29.81,SSW,202,0.0,1.0,63,0.00,,,0.00,,2013-07-08 01:11:00,
2013-07-07 20:22:00,90.0,77.0,29.81,SSW,202,0.0,1.0,66,0.00,,,0.00,,2013-07-08 01:22:00,
2013-07-07 20:32:00,89.0,77.0,29.82,SSW,202,0.0,0.0,67,0.00,,,0.00,,2013-07-08 01:32:00,
2013-07-07 20:42:00,89.0,77.0,29.83,SSW,202,0.0,0.0,69,0.00,,,0.00,,2013-07-08 01:42:00,
2013-07-07 20:52:00,88.0,77.0,29.84,SSW,202,0.0,0.0,69,0.00,,,0.00,,2013-07-08 01:52:00,
2013-07-07 21:02:00,87.0,75.0,29.85,SSW,202,0.0,0.0,67,0.00,,,0.00,,2013-07-08 02:02:00,
2013-07-07 21:11:00,87.0,75.0,29.85,SSW,202,0.0,0.0,68,0.00,,,0.00,,2013-07-08 02:11:00,
2013-07-07 21:22:00,86.0,74.0,29.85,SSW,202,0.0,0.0,67,0.00,,,0.00,,2013-07-08 02:22:00,
2013-07-07 21:33:00,85.0,74.0,29.85,SSW,202,0.0,0.0,69,0.00,,,0.00,,2013-07-08 02:33:00,
2013-07-07 21:42:00,85.0,74.0,29.85,SSW,202,0.0,0.0,70,0.00,,,0.00,,2013-07-08 02:42:00,
2013-07-07 21:52:00,84.0,74.0,29.85,SSW,202,0.0,0.0,73,0.00,,,0.00,,2013-07-08 02:52:00,
2013-07-07 22:01:00,84.0,75.0,29.85,SSW,202,0.0,0.0,74,0.00,,,0.00,,2013-07-08 03:01:00,
2013-07-07 22:12:00,83.0,75.0,29.87,SSW,202,0.0,0.0,76,0.00,,,0.00,,2013-07-08 03:12:00,
2013-07-07 22:23:00,82.0,74.0,29.87,SSW,202,0.0,0.0,78,0.00,,,0.00,,2013-07-08 03:23:00,
2013-07-07 22:34:00,82.0,75.0,29.88,SSW,202,0.0,0.0,79,0.00,,,0.00,,2013-07-08 03:34:00,
2013-07-07 22:42:00,81.0,74.0,29.89,SSW,202,0.0,0.0,80,0.00,,,0.00,,2013-07-08 03:42:00,
2013-07-07 22:52:00,81.0,74.0,29.89,SSW,202,0.0,0.0,80,0.00,,,0.00,,2013-07-08 03:52:00,
2013-07-07 23:01:00,81.0,75.0,29.89,SSW,202,0.0,0.0,81,0.00,,,0.00,,2013-07-08 04:01:00,
2013-07-07 23:11:00,80.0,74.0,29.89,SSW,202,0.0,0.0,82,0.00,,,0.00,,2013-07-08 04:11:00,
2013-07-07 23:22:00,80.0,74.0,29.89,SSW,202,0.0,0.0,82,0.00,,,0.00,,2013-07-08 04:22:00,
2013-07-07 23:33:00,80.0,74.0,29.89,SSW,202,0.0,0.0,82,0.00,,,0.00,,2013-07-08 04:33:00,
2013-07-07 23:42:00,80.0,74.0,29.90,SSW,202,0.0,3.0,83,0.00,,,0.00,,2013-07-08 04:42:00,
2013-07-07 23:53:00,80.0,74.0,29.90,NW,324,0.0,4.0,81,0.00,,,0.00,,2013-07-08 04:53:00,